Probability
0 0 0 0 0 0 0 1 2 3 2 1 1 0 0 0 1 0 0 0 0 0 0 0 0 0 0 0 0 0 0 0 0 0 0 0 0 0 0 0 0 0 0
0 0 0 0 0 0 0 0 1 2 2 2 1 1 0 0 1 0 0 0 0 0 0 0 0 0 0 0 0 0 0 0 0 0 0 0 0 0 0 0 0 0 0
0 0 0 1 0 0 0 0 0 1 1 2 2 1 0 1 1 0 0 0 0 0 0 0 0 0 0 0 0 0 0 0 0 0 0 0 0 0 0 0 0 0 0
0 0 0 0 0 0 0 0 0 0 0 1 2 1 1 1 1 1 2 1 1 0 0 0 0 0 0 0 0 0 0 0 0 0 0 0 0 0 0 0 0 0 0
0 0 0 0 0 0 0 1 2 1 0 0 1 1 2 2 2 2 3 3 2 1 0 0 0 0 0 0 0 0 0 0 0 0 0 0 0 0 0 0 0 0 0
0 0 0 0 1 1 1 1 2 2 1 0 0 1 1 2 2 3 3 3 3 1 0 0 0 0 0 0 1 2 1 1 1 0 0 0 0 0 0 0 0 0 0
0 0 0 0 1 2 2 2 2 2 1 1 1 0 1 2 3 2 2 3 3 1 0 0 0 0 0 0 2 3 3 2 2 1 0 0 0 0 0 0 0 0 0
0 0 0 0 0 1 2 3 3 2 1 1 1 1 2 4 3 2 2 2 2 1 0 0 0 0 0 0 1 2 3 3 3 2 1 1 0 0 0 0 0 0 0
0 0 0 0 0 0 1 2 2 2 1 1 1 1 2 4 4 4 3 3 2 1 0 0 0 0 0 0 0 1 1 2 3 3 3 2 1 0 0 0 0 0 0
0 0 0 0 0 0 0 1 1 1 1 0 0 1 1 3 5 6 5 4 3 2 1 1 0 0 0 0 0 0 1 2 3 3 3 3 1 1 0 0 0 0 0
0 0 0 0 0 0 0 0 0 0 0 0 0 0 0 1 4 6 6 5 4 4 3 2 1 0 0 0 0 0 1 2 3 3 3 3 3 2 1 1 0 0 0
0 0 0 0 0 0 0 0 0 0 0 0 0 0 0 1 2 4 5 6 6 6 5 4 2 0 0 0 0 0 1 2 3 3 3 3 3 3 3 2 1 1 0
0 0 0 0 0 0 0 0 0 0 0 0 0 0 0 0 1 1 3 4 5 6 6 5 2 1 0 0 0 0 0 1 2 3 3 3 3 3 3 3 3 2 1
0 0 0 0 0 0 0 0 0 0 0 0 0 0 0 0 0 0 1 1 3 5 5 5 4 2 1 0 0 0 0 0 1 2 3 3 3 3 3 3 3 3 2
0 0 0 0 0 0 0 0 0 0 0 0 0 0 0 0 1 1 0 0 1 2 3 3 3 2 1 0 0 0 0 0 0 1 3 3 3 3 2 2 2 2 2
0 0 0 0 0 0 0 0 0 0 0 0 0 0 0 0 1 1 0 0 1 1 1 1 1 1 0 0 0 0 0 0 0 1 2 3 3 1 1 1 1 0 1
0 0 0 0 0 0 0 0 0 0 0 0 0 0 0 0 1 1 0 0 0 0 0 0 0 0 0 0 0 0 0 0 0 0 1 2 2 1 0 0 0 0 0
0 0 0 0 0 0 0 0 0 0 0 0 0 0 0 0 0 0 0 0 0 0 0 0 0 0 0 0 0 0 0 0 0 0 0 1 1 0 0 0 0 0 0
0 0 0 0 0 0 0 0 0 0 0 0 0 0 0 0 0 0 0 0 0 1 0 0 0 0 0 0 0 0 0 0 0 0 0 0 0 0 0 0 0 0 0
0 0 0 0 0 0 0 0 0 0 0 0 0 0 0 0 0 0 0 0 0 0 0 0 0 0 0 0 0 0 0 0 0 0 0 0 0 0 0 0 0 0 0
0 0 0 0 0 0 0 0 0 0 0 0 0 0 0 0 0 0 0 0 0 0 0 0 0 0 0 0 0 0 0 0 0 0 0 0 0 0 0 0 0 0 0
0 0 0 0 0 0 0 0 0 0 0 0 0 0 0 0 0 0 0 0 0 0 0 0 0 0 0 0 0 0 0 0 0 0 0 0 0 0 0 0 0 0 0
0 0 0 0 0 0 0 0 0 0 0 0 0 0 0 0 0 0 0 0 0 0 0 0 0 0 0 0 0 0 0 0 0 0 0 0 0 0 0 0 0 0 0
0 0 0 0 0 0 0 0 0 0 0 0 0 0 0 0 0 0 0 0 0 0 0 0 0 0 0 0 0 0 0 0 0 0 0 0 0 0 0 0 0 0 0
0 0 0 0 0 0 0 0 0 0 0 0 0 0 0 0 0 0 0 0 0 0 0 0 0 0 0 0 0 0 0 0 0 0 0 0 0 0 0 0 0 0 0
0 0 0 0 0 0 0 0 0 0 0 0 0 0 0 0 0 0 0 0 0 0 0 0 0 0 0 0 0 0 0 0 0 0 0 0 0 0 0 0 0 0 0
Wind_Speed
5 3 3 4 5 6 7 8 9 9 8 7 7 7 8 7 7 7 8 9 9 9 9 8 8 8 8 8 9 7 8 7 5 5 6 7 8 8 7 7 6 7 7
5 3 2 2 3 4 5 7 8 8 8 7 6 5 6 6 7 6 7 9 9 9 8 10 8 8 8 9 9 8 6 5 5 5 4 5 5 5 5 6 6 6 5
7 5 3 2 2 3 4 5 6 7 7 7 6 4 4 5 6 7 6 7 8 9 9 9 9 8 9 8 9 9 10 7 6 7 6 5 5 3 4 5 5 6 5
4 3 3 3 2 3 3 4 4 5 5 6 6 8 7 7 8 6 5 6 7 8 8 8 9 9 8 8 8 8 8 9 7 6 7 7 5 5 4 4 4 5 6
3 2 2 2 3 3 2 2 2 2 3 4 6 8 8 7 5 5 6 6 6 7 8 8 8 8 7 8 8 8 8 8 8 6 5 7 7 8 7 8 6 5 5
2 2 2 2 2 3 3 3 2 1 2 2 4 6 7 7 6 6 5 5 5 5 7 7 7 7 7 8 8 8 9 8 9 8 6 6 6 6 7 8 8 7 5
3 3 4 3 3 4 3 3 3 2 2 1 2 3 5 6 6 6 5 5 4 5 6 6 6 6 7 7 7 7 8 8 9 8 7 7 7 6 7 8 8 8 6
4 4 4 4 4 4 3 3 3 3 3 2 2 2 2 2 2 3 3 3 3 4 4 5 5 6 6 6 6 5 6 6 7 8 8 6 6 6 6 6 6 7 6
6 5 5 5 5 4 4 3 3 3 4 4 3 2 2 2 2 3 2 2 2 2 2 3 3 4 5 5 6 5 6 6 6 6 7 6 5 5 5 5 5 6 7
8 7 6 6 5 5 4 4 3 3 3 4 4 3 3 3 3 2 3 3 3 3 3 2 3 3 3 4 4 5 5 6 6 5 6 6 5 5 5 5 5 6 7
8 7 7 6 6 5 5 5 4 4 4 4 4 4 4 3 3 3 3 3 3 3 3 3 3 3 3 3 3 4 5 6 6 6 6 7 6 5 5 5 5 5 6
7 7 7 6 6 6 6 5 5 5 5 4 4 4 4 4 4 4 4 4 4 4 3 3 3 3 3 3 4 4 5 5 6 6 6 7 5 6 5 5 6 6 6
7 7 6 6 6 6 5 5 5 5 5 5 4 4 4 4 4 4 4 4 4 4 4 3 3 3 3 3 4 4 4 5 6 6 6 6 6 6 5 5 5 5 5
7 7 6 6 6 6 5 5 5 5 5 5 4 5 5 5 5 4 4 4 4 4 4 4 4 3 3 3 3 4 4 4 4 5 5 6 6 6 5 4 5 5 5
7 7 7 6 6 6 5 5 5 5 5 4 4 5 5 5 5 5 5 4 4 4 4 4 4 3 3 3 3 3 4 4 4 3 3 4 4 4 4 4 5 5 4
7 7 7 7 6 6 5 5 5 5 4 4 4 4 4 5 5 5 5 5 5 4 4 4 4 4 3 3 4 4 4 4 4 4 3 3 2 2 3 4 4 4 5
7 7 7 7 6 6 6 5 5 4 4 4 4 4 4 4 5 5 4 4 5 5 5 4 4 4 5 5 5 4 4 4 3 3 3 2 1 2 2 2 3 3 3
7 7 6 7 6 6 5 5 5 4 4 4 4 5 5 5 5 4 4 5 4 4 4 4 5 5 4 5 4 4 3 3 3 3 3 3 2 1 1 2 2 2 3
7 6 6 6 6 6 5 5 4 4 4 4 5 5 5 5 5 5 5 5 5 4 4 4 4 5 5 5 4 3 3 2 3 3 3 3 3 1 2 2 2 2 2
6 6 6 6 6 6 5 4 5 5 5 6 6 5 5 5 5 5 5 5 4 4 4 4 4 4 4 5 4 4 2 3 3 2 2 2 2 2 2 3 3 3 2
7 6 6 5 5 5 5 5 6 6 6 6 6 5 5 5 5 5 4 4 4 4 4 4 4 4 4 5 4 4 2 3 3 3 3 2 2 3 2 3 2 2 1
8 7 6 6 5 5 5 6 7 6 5 5 5 6 5 5 4 4 4 4 4 3 3 4 4 3 3 4 4 4 4 4 3 3 3 2 3 3 2 1 1 0 1
8 6 6 7 6 5 5 7 7 6 5 5 5 6 5 5 4 4 4 3 3 3 3 3 4 3 3 3 5 5 5 5 3 3 3 3 3 2 1 1 1 0 0
6 5 5 6 7 6 5 6 6 5 5 6 6 5 5 5 4 4 4 3 3 4 4 4 4 4 3 3 3 2 2 2 2 2 1 2 1 1 1 1 1 1 1
6 5 6 7 8 7 7 6 5 5 6 6 5 5 5 5 4 4 4 5 4 4 5 5 4 4 5 4 5 3 2 2 2 2 1 1 1 0 0 1 1 1 1
6 6 7 7 7 7 7 6 5 5 5 5 5 5 4 4 4 4 4 6 6 7 9 8 7 5 6 7 6 6 5 4 3 2 2 2 1 1 1 1 0 1 1
Wind_Direction
270 270 252 238 230 225 224 223 221 218 212 208 211 215 219 220 222 224 227 223 222 221 223 226 226 221 223 227 228 229 234 236 236 250 264 263 255 254 252 250 251 249 248
271 264 260 245 237 236 233 229 225 222 219 220 218 223 223 223 225 225 227 226 224 222 222 226 227 222 224 227 227 225 229 230 218 231 254 270 261 237 241 244 246 252 250
270 274 282 263 247 250 254 248 238 230 226 227 224 221 223 224 220 224 226 226 225 224 222 226 226 225 224 227 226 224 227 232 224 223 233 251 262 291 238 236 244 248 251
279 295 306 309 305 282 271 263 259 248 236 224 223 222 223 230 230 227 224 223 220 224 226 228 229 227 225 228 226 226 229 232 233 225 231 246 268 269 278 248 241 248 254
295 306 312 304 312 317 311 287 276 273 262 237 232 232 236 241 244 235 225 222 221 224 226 228 231 232 228 228 227 224 226 228 234 231 226 234 243 247 257 270 268 259 251
314 321 338 359 0 359 358 346 352 342 318 280 252 240 240 242 243 244 240 231 226 225 227 229 230 233 232 230 230 227 226 226 231 233 229 227 231 234 239 253 265 270 266
343 342 347 353 6 11 9 7 14 5 359 336 295 274 254 245 245 249 248 249 240 233 229 226 230 234 235 234 231 228 229 229 231 233 234 233 237 243 244 250 260 266 269
356 353 351 350 356 4 7 11 10 2 6 6 333 319 319 292 278 274 272 270 265 257 248 233 232 234 237 237 232 231 233 233 233 238 239 238 240 243 245 248 256 265 264
359 353 350 348 350 358 1 3 8 8 9 7 360 358 353 343 335 328 318 312 317 311 288 254 240 242 241 240 234 230 231 231 232 235 238 240 243 244 245 246 244 250 263
0 357 354 352 351 355 3 12 17 16 13 16 13 5 5 358 346 346 353 345 332 327 331 294 264 255 254 250 246 237 233 232 235 235 235 237 241 242 243 244 245 244 254
352 352 354 358 2 6 12 17 15 15 15 13 8 6 3 359 357 353 344 334 325 324 326 320 301 283 269 262 255 253 241 234 236 236 236 241 240 240 241 243 247 248 250
354 355 357 2 6 10 11 11 11 9 4 1 360 359 359 359 359 349 336 332 324 321 319 314 316 309 298 282 258 256 251 243 244 243 241 244 242 241 244 243 245 248 249
356 358 0 1 360 360 360 3 5 4 0 358 356 353 354 354 352 342 336 335 327 324 322 313 307 301 296 287 270 260 262 253 249 249 248 249 248 249 248 249 251 253 256
350 352 354 355 356 351 350 353 355 357 357 356 355 354 349 344 339 337 338 337 331 326 321 310 299 294 290 285 285 277 268 268 261 255 254 252 247 249 251 253 257 256 253
345 347 344 344 344 345 345 346 344 350 351 350 351 350 346 346 347 347 345 342 335 327 318 309 305 299 291 293 293 288 281 273 268 259 254 256 260 261 261 258 257 253 253
335 336 336 336 335 336 336 334 331 335 338 340 339 341 342 345 345 344 344 344 340 335 332 324 314 308 307 316 304 289 275 271 266 266 258 251 252 265 263 262 262 258 253
328 332 333 330 328 327 324 321 321 323 326 328 331 335 337 337 337 336 338 338 334 331 330 325 322 318 320 327 318 303 285 271 262 262 258 248 247 251 264 263 254 260 264
322 326 326 324 323 320 318 318 321 323 320 321 326 330 329 327 329 329 329 329 326 322 319 318 317 311 314 325 319 304 278 275 270 267 265 256 252 255 264 273 276 287 284
307 306 311 313 314 318 317 315 315 315 312 311 313 315 313 312 314 317 319 319 315 312 311 309 306 303 306 321 319 316 282 272 274 275 271 262 256 258 230 226 246 277 314
304 304 306 309 309 314 315 308 304 304 302 302 302 302 299 296 298 302 305 307 304 303 306 299 296 295 301 316 321 317 286 278 281 282 275 265 268 271 235 232 224 237 268
300 299 298 298 301 308 306 294 292 291 297 302 299 296 293 291 291 294 295 298 299 299 300 298 298 297 299 302 311 314 292 282 280 275 272 272 278 281 263 250 248 240 243
297 294 292 292 297 301 294 287 287 294 298 296 291 289 289 287 287 288 291 293 290 290 293 294 294 292 295 296 296 296 288 291 277 277 284 288 290 290 293 287 322 191 158
291 289 285 287 291 292 283 280 287 296 294 287 284 284 287 284 281 276 276 279 277 276 281 284 286 289 292 292 292 288 288 292 289 288 299 306 311 307 310 44 354 350 127
288 287 283 282 285 287 282 278 287 289 284 280 282 282 282 283 280 273 265 262 262 266 269 272 277 283 286 290 295 290 290 300 305 302 313 320 340 15 39 28 25 20 3
287 284 278 279 284 291 289 287 286 281 278 279 280 279 274 275 274 269 265 264 260 259 264 266 267 269 273 283 288 291 292 290 284 293 283 271 279 309 6 17 22 16 15
286 284 280 279 283 287 287 289 286 273 269 274 276 274 273 271 270 274 276 265 267 273 269 270 272 270 273 284 281 283 283 273 260 262 240 238 234 232 238 243 310 327 330